Hourly Data Report for October 07, 2020

VICTORIA UNIVERSITY CS
BRITISH COLUMBIA
Current Station Operator: ECCC - MSC

48°27'25.200" N
123°18'16.600" W
60.10 m
1018598
71783
WYJ

Download Data

Hourly Data (October 2020)
Hourly Data Report for October 7, 2020
TIME
LST
Temp Definition
°C
Dew Point Definition
°C
Rel Hum Definition
%
Precip. Amount Definition
mm

Wind Dir Definition
10's deg

Wind Spd Definition
km/h
Visibility Definition
km
Stn Press Definition
kPa
Hmdx Definition


Wind Chill Definition


Weather Definition


00:00 11.1 11.0 99 0.0   0   100.87     LegendNANA
01:00 11.0 10.9 99 0.0 29 3   100.83     LegendNANA
02:00 11.3 11.3 100 0.0 27 3   100.78     LegendNANA
03:00 11.6 11.5 99 0.0 34 3   100.75     LegendNANA
04:00 12.7 12.6 99 0.0 33 5   100.71     LegendNANA
05:00 13.7 13.6 100 0.0 35 8   100.69     LegendNANA
06:00 13.2 13.1 100 0.0 34 6   100.68     LegendNANA
07:00 13.1 13.1 100 0.0 36 4   100.69     LegendNANA
08:00 13.2 13.1 100 0.0 36 8   100.69     LegendNANA
09:00 13.5 13.5 99 0.0 36 6   100.67     LegendNANA
10:00 14.1 14.0 100 0.0 36 5   100.63     LegendNANA
11:00 14.1 13.9 99 0.0 1 6   100.60     LegendNANA
12:00 14.4 13.9 97 0.0 3 6   100.54     LegendNANA
13:00 15.6 13.7 88 0.0 1 7   100.47     LegendNANA
14:00 16.3 13.2 82 0.0 10 4   100.41     LegendNANA
15:00 14.1 13.7 98 0.0 16 5   100.38     LegendNANA
16:00 13.2 12.6 96 0.0 17 5   100.33     LegendNANA
17:00 13.2 12.9 98 0.0 18 3   100.29     LegendNANA
18:00 12.5 12.4 100 0.0 16 4   100.28     LegendNANA
19:00 12.7 12.7 100 0.0 18 5   100.30     LegendNANA
20:00 12.6 12.5 99 0.0 18 6   100.27     LegendNANA
21:00 12.0 11.9 99 0.0 17 3   100.28     LegendNANA
22:00 11.3 11.2 99 0.0 18 4   100.27     LegendNANA
23:00 10.3 10.2 100 0.0 18 4   100.27     LegendNANA

Notes on Data Quality.

Legend

  • E = Estimated
  • M = Missing
  • NA = Not Available*
  • [empty] = Indicates an unobserved value
Date modified: